owner,sensor,date,latitude,longitude,vertical_datum,wind_speed,wind_to_direction,wind_speed_of_gust,qcFlag 
TABS,ioos:station:wmo:42044:1,2017-01-05T00:00:00Z,26.1914,-97.0507,0.0,1.772484133,147.206794,3.19,'11111222,11111222,11111222' 
TABS,ioos:station:wmo:42044:1,2017-01-05T00:30:00Z,26.1914,-97.0507,0.0,0.133416641,167.0056241,0.56,'11111222,11111222,11111222' 
TABS,ioos:station:wmo:42044:1,2017-01-05T01:00:00Z,26.1914,-97.0507,0.0,0.161245155,172.8752108,0.62,'11111222,11111222,11111222' 
TABS,ioos:station:wmo:42044:1,2017-01-05T01:30:00Z,26.1914,-97.0507,0.0,0.259422435,152.4474633,0.89,'11111222,11111222,11111222' 
TABS,ioos:station:wmo:42044:1,2017-01-05T02:00:00Z,26.1914,-97.0507,0.0,0.716937933,157.0115474,1.38,'11111222,11111222,11111222' 
TABS,ioos:station:wmo:42044:1,2017-01-05T02:30:00Z,26.1914,-97.0507,0.0,0.09486833,198.4351162,0.8,'11111222,11111222,11111222' 
TABS,ioos:station:wmo:42044:1,2017-01-05T03:00:00Z,26.1914,-97.0507,0.0,0.403112887,277.1249997,1.49,'11111222,11111222,11111222' 
TABS,ioos:station:wmo:42044:1,2017-01-05T03:30:00Z,26.1914,-97.0507,0.0,0.102956301,299.0545362,1.49,'11111222,11111222,11111222' 
TABS,ioos:station:wmo:42044:1,2017-01-05T04:00:00Z,26.1914,-97.0507,0.0,0.44,90.00042092,1.2,'11111222,11111222,11111222' 
TABS,ioos:station:wmo:42044:1,2017-01-05T04:30:00Z,26.1914,-97.0507,0.0,0.395600809,106.1447219,0.79,'11111222,11111222,11111222' 
TABS,ioos:station:wmo:42044:1,2017-01-05T05:00:00Z,26.1914,-97.0507,0.0,0.657951366,24.2274782,2.18,'11111222,11111222,11111222' 
TABS,ioos:station:wmo:42044:1,2017-01-05T05:30:00Z,26.1914,-97.0507,0.0,2.580484451,26.96196908,3.21,'11111222,11111222,11111222' 
TABS,ioos:station:wmo:42044:1,2017-01-05T06:00:00Z,26.1914,-97.0507,0.0,1.825705343,42.78003395,2.16,'11111222,11111222,11111222' 
TABS,ioos:station:wmo:42044:1,2017-01-05T06:30:00Z,26.1914,-97.0507,0.0,1.88883562,73.38753759,2.25,'11111222,11111222,11111222' 
TABS,ioos:station:wmo:42044:1,2017-01-05T07:00:00Z,26.1914,-97.0507,0.0,2.449203952,137.6479392,2.94,'11111222,11111222,11111222' 
TABS,ioos:station:wmo:42044:1,2017-01-05T07:30:00Z,26.1914,-97.0507,0.0,0.888144132,125.8379901,1.34,'11111222,11111222,11111222' 
TABS,ioos:station:wmo:42044:1,2017-01-05T08:00:00Z,26.1914,-97.0507,0.0,1.644019465,99.80649075,2.34,'11111222,11111222,11111222' 
TABS,ioos:station:wmo:42044:1,2017-01-05T08:30:00Z,26.1914,-97.0507,0.0,1.275343091,155.4447705,1.69,'11111222,11111222,11111222' 
TABS,ioos:station:wmo:42044:1,2017-01-05T09:00:00Z,26.1914,-97.0507,0.0,1.72800463,127.0028609,2.3,'11111222,11111222,11111222' 
TABS,ioos:station:wmo:42044:1,2017-01-05T09:30:00Z,26.1914,-97.0507,0.0,2.603171143,102.6485651,3.03,'11111222,11111222,11111222' 
TABS,ioos:station:wmo:42044:1,2017-01-05T10:00:00Z,26.1914,-97.0507,0.0,0.696419414,105.8327705,1.21,'11111222,11111222,11111222' 
TABS,ioos:station:wmo:42044:1,2017-01-05T10:30:00Z,26.1914,-97.0507,0.0,0.215870331,346.6073231,0.57,'11111222,11111222,11111222' 
TABS,ioos:station:wmo:42044:1,2017-01-05T11:00:00Z,26.1914,-97.0507,0.0,2.08038458,358.898086,2.51,'11111222,11111222,11111222' 
TABS,ioos:station:wmo:42044:1,2017-01-05T11:30:00Z,26.1914,-97.0507,0.0,3.182467596,311.0503384,5.23,'11111222,11111222,11111222' 
TABS,ioos:station:wmo:42044:1,2017-01-05T12:00:00Z,26.1914,-97.0507,0.0,5.404535133,313.350476,6.59,'11111222,11111222,11111222' 
TABS,ioos:station:wmo:42044:1,2017-01-05T12:30:00Z,26.1914,-97.0507,0.0,4.592962007,324.3026782,5.3,'11111222,11111222,11111222' 
TABS,ioos:station:wmo:42044:1,2017-01-05T13:00:00Z,26.1914,-97.0507,0.0,3.236309627,339.941102,3.99,'11111222,11111222,11111222' 
TABS,ioos:station:wmo:42044:1,2017-01-05T13:30:00Z,26.1914,-97.0507,0.0,2.81485346,331.3406622,3.29,'11111222,11111222,11111222' 
TABS,ioos:station:wmo:42044:1,2017-01-05T14:00:00Z,26.1914,-97.0507,0.0,2.913588852,338.4540504,4.13,'11111222,11111222,11111222' 
TABS,ioos:station:wmo:42044:1,2017-01-05T14:30:00Z,26.1914,-97.0507,0.0,2.968164416,302.6191668,3.53,'11111222,11111222,11111222' 
TABS,ioos:station:wmo:42044:1,2017-01-05T15:00:00Z,26.1914,-97.0507,0.0,2.793295545,314.2746722,3.47,'11111222,11111222,11111222' 
TABS,ioos:station:wmo:42044:1,2017-01-05T15:30:00Z,26.1914,-97.0507,0.0,3.810419924,330.6093409,4.8,'11111222,11111222,11111222' 
TABS,ioos:station:wmo:42044:1,2017-01-05T16:00:00Z,26.1914,-97.0507,0.0,4.745966709,304.5270952,5.87,'11111222,11111222,11111222' 
TABS,ioos:station:wmo:42044:1,2017-01-05T16:30:00Z,26.1914,-97.0507,0.0,3.963041761,297.6642063,4.91,'11111222,11111222,11111222' 
TABS,ioos:station:wmo:42044:1,2017-01-05T17:00:00Z,26.1914,-97.0507,0.0,4.051777388,296.3752691,4.78,'11111222,11111222,11111222' 
TABS,ioos:station:wmo:42044:1,2017-01-05T17:30:00Z,26.1914,-97.0507,0.0,4.144828103,313.6313172,4.91,'11111222,11111222,11111222' 
TABS,ioos:station:wmo:42044:1,2017-01-05T18:00:00Z,26.1914,-97.0507,0.0,3.955009482,316.9465823,4.86,'11111222,11111222,11111222' 
TABS,ioos:station:wmo:42044:1,2017-01-05T18:30:00Z,26.1914,-97.0507,0.0,3.69173401,325.7071641,4.49,'11111222,11111222,11111222' 
TABS,ioos:station:wmo:42044:1,2017-01-05T19:00:00Z,26.1914,-97.0507,0.0,3.393125403,341.6182814,4.0,'11111222,11111222,11111222' 
TABS,ioos:station:wmo:42044:1,2017-01-05T19:30:00Z,26.1914,-97.0507,0.0,2.232241026,2.567380866,2.57,'11111222,11111222,11111222' 
TABS,ioos:station:wmo:42044:1,2017-01-05T20:00:00Z,26.1914,-97.0507,0.0,1.040432602,54.78206847,1.42,'11111222,11111222,11111222' 
TABS,ioos:station:wmo:42044:1,2017-01-05T20:30:00Z,26.1914,-97.0507,0.0,1.512679741,93.4113579,2.09,'11111222,11111222,11111222' 
TABS,ioos:station:wmo:42044:1,2017-01-05T21:00:00Z,26.1914,-97.0507,0.0,2.017176244,99.41602529,2.42,'11111222,11111222,11111222' 
TABS,ioos:station:wmo:42044:1,2017-01-05T21:30:00Z,26.1914,-97.0507,0.0,1.957268505,103.8946352,2.31,'11111222,11111222,11111222' 
TABS,ioos:station:wmo:42044:1,2017-01-05T22:00:00Z,26.1914,-97.0507,0.0,2.46868386,63.01941146,3.0,'11111222,11111222,11111222' 
TABS,ioos:station:wmo:42044:1,2017-01-05T22:30:00Z,26.1914,-97.0507,0.0,3.091035425,43.55776431,3.64,'11111222,11111222,11111222' 
TABS,ioos:station:wmo:42044:1,2017-01-05T23:00:00Z,26.1914,-97.0507,0.0,4.354227831,47.8853152,5.14,'11111222,11111222,11111222' 
TABS,ioos:station:wmo:42044:1,2017-01-05T23:30:00Z,26.1914,-97.0507,0.0,3.659412521,61.96399794,4.16,'11111222,11111222,11111222' 
TABS,ioos:station:wmo:42044:1,2017-01-06T00:00:00Z,26.1914,-97.0507,0.0,4.044082096,58.54993845,4.64,'11111222,11111222,11111222' 
TABS,ioos:station:wmo:42044:1,2017-01-06T00:30:00Z,26.1914,-97.0507,0.0,3.889781485,50.00550516,4.55,'11111222,11111222,11111222' 
TABS,ioos:station:wmo:42044:1,2017-01-06T01:00:00Z,26.1914,-97.0507,0.0,4.197189536,69.06012545,4.83,'11111222,11111222,11111222' 
TABS,ioos:station:wmo:42044:1,2017-01-06T01:30:00Z,26.1914,-97.0507,0.0,4.171055022,71.69498924,5.1,'11111222,11111222,11111222' 
TABS,ioos:station:wmo:42044:1,2017-01-06T02:00:00Z,26.1914,-97.0507,0.0,3.976128771,66.27124349,4.45,'11111222,11111222,11111222' 
TABS,ioos:station:wmo:42044:1,2017-01-06T02:30:00Z,26.1914,-97.0507,0.0,3.57777864,63.0764969,4.25,'11111222,11111222,11111222' 
TABS,ioos:station:wmo:42044:1,2017-01-06T03:00:00Z,26.1914,-97.0507,0.0,3.783186488,60.72439326,4.21,'11111222,11111222,11111222' 
TABS,ioos:station:wmo:42044:1,2017-01-06T03:30:00Z,26.1914,-97.0507,0.0,3.432579205,61.26929326,3.86,'11111222,11111222,11111222' 
TABS,ioos:station:wmo:42044:1,2017-01-06T04:00:00Z,26.1914,-97.0507,0.0,3.013784996,71.02359731,3.48,'11111222,11111222,11111222' 
TABS,ioos:station:wmo:42044:1,2017-01-06T04:30:00Z,26.1914,-97.0507,0.0,2.631900454,87.82208638,3.0,'11111222,11111222,11111222' 
TABS,ioos:station:wmo:42044:1,2017-01-06T05:00:00Z,26.1914,-97.0507,0.0,2.724591713,65.03356063,3.08,'11111222,11111222,11111222' 
TABS,ioos:station:wmo:42044:1,2017-01-06T05:30:00Z,26.1914,-97.0507,0.0,2.182567296,62.73017086,2.49,'11111222,11111222,11111222' 
TABS,ioos:station:wmo:42044:1,2017-01-06T06:00:00Z,26.1914,-97.0507,0.0,2.709778589,46.94369879,3.22,'11111222,11111222,11111222' 
TABS,ioos:station:wmo:42044:1,2017-01-06T06:30:00Z,26.1914,-97.0507,0.0,2.795711001,33.91714076,3.15,'11111222,11111222,11111222' 
TABS,ioos:station:wmo:42044:1,2017-01-06T07:00:00Z,26.1914,-97.0507,0.0,2.439610625,16.42905257,2.8,'11111222,11111222,11111222' 
TABS,ioos:station:wmo:42044:1,2017-01-06T07:30:00Z,26.1914,-97.0507,0.0,3.066480067,20.62139236,3.75,'11111222,11111222,11111222' 
TABS,ioos:station:wmo:42044:1,2017-01-06T08:00:00Z,26.1914,-97.0507,0.0,3.081314654,38.54334811,3.64,'11111222,11111222,11111222' 
TABS,ioos:station:wmo:42044:1,2017-01-06T08:30:00Z,26.1914,-97.0507,0.0,2.79451248,29.5920167,3.22,'11111222,11111222,11111222' 
TABS,ioos:station:wmo:42044:1,2017-01-06T09:00:00Z,26.1914,-97.0507,0.0,4.810166317,0.476249623,5.52,'11111222,11111222,11111222' 
TABS,ioos:station:wmo:42044:1,2017-01-06T09:30:00Z,26.1914,-97.0507,0.0,9.317939686,354.8276408,12.21,'11111222,11111222,11111222' 
TABS,ioos:station:wmo:42044:1,2017-01-06T10:00:00Z,26.1914,-97.0507,0.0,9.116605728,6.929906832,11.15,'11111222,11111222,11111222' 
TABS,ioos:station:wmo:42044:1,2017-01-06T10:30:00Z,26.1914,-97.0507,0.0,9.377936873,12.37615103,11.58,'11111222,11111222,11111222' 
TABS,ioos:station:wmo:42044:1,2017-01-06T11:00:00Z,26.1914,-97.0507,0.0,8.955445271,352.5573657,11.18,'11111222,11111222,11111222' 
TABS,ioos:station:wmo:42044:1,2017-01-06T11:30:00Z,26.1914,-97.0507,0.0,9.874137937,355.9927317,12.56,'11111222,11111222,11111222' 
TABS,ioos:station:wmo:42044:1,2017-01-06T12:00:00Z,26.1914,-97.0507,0.0,10.42075333,4.402701556,12.07,'11111222,11111222,11111222' 
TABS,ioos:station:wmo:42044:1,2017-01-06T12:30:00Z,26.1914,-97.0507,0.0,10.48124516,6.684062187,13.25,'11111222,11111222,11111222' 
TABS,ioos:station:wmo:42044:1,2017-01-06T13:00:00Z,26.1914,-97.0507,0.0,11.20217836,11.43006439,13.24,'11111222,11111222,11111222' 
TABS,ioos:station:wmo:42044:1,2017-01-06T13:30:00Z,26.1914,-97.0507,0.0,11.1784838,12.34510688,13.34,'11111222,11111222,11111222' 
TABS,ioos:station:wmo:42044:1,2017-01-06T14:00:00Z,26.1914,-97.0507,0.0,11.17676608,11.56103474,13.38,'11111222,11111222,11111222' 
TABS,ioos:station:wmo:42044:1,2017-01-06T14:30:00Z,26.1914,-97.0507,0.0,11.18353254,2.818695072,13.47,'11111222,11111222,11111222' 
TABS,ioos:station:wmo:42044:1,2017-01-06T15:00:00Z,26.1914,-97.0507,0.0,11.29099641,0.760980081,12.96,'11111222,11111222,11111222' 
TABS,ioos:station:wmo:42044:1,2017-01-06T15:30:00Z,26.1914,-97.0507,0.0,11.52611383,349.1480829,13.46,'11111222,11111222,11111222' 
TABS,ioos:station:wmo:42044:1,2017-01-06T16:00:00Z,26.1914,-97.0507,0.0,11.90623786,348.8125721,14.8,'11111222,11111222,11111222' 
TABS,ioos:station:wmo:42044:1,2017-01-06T16:30:00Z,26.1914,-97.0507,0.0,11.49445519,348.9147245,14.18,'11111222,11111222,11111222' 
TABS,ioos:station:wmo:42044:1,2017-01-06T17:00:00Z,26.1914,-97.0507,0.0,12.2361963,344.3052747,14.67,'11111222,11111222,11111222' 
TABS,ioos:station:wmo:42044:1,2017-01-06T17:30:00Z,26.1914,-97.0507,0.0,11.35011013,343.9920249,13.81,'11111222,11111222,11111222' 
TABS,ioos:station:wmo:42044:1,2017-01-06T18:00:00Z,26.1914,-97.0507,0.0,11.64687512,344.2571508,14.49,'11111222,11111222,11111222' 
TABS,ioos:station:wmo:42044:1,2017-01-06T18:30:00Z,26.1914,-97.0507,0.0,11.67702445,344.0948701,14.42,'11111222,11111222,11111222' 
TABS,ioos:station:wmo:42044:1,2017-01-06T19:00:00Z,26.1914,-97.0507,0.0,11.96918126,346.1261193,14.73,'11111222,11111222,11111222' 
TABS,ioos:station:wmo:42044:1,2017-01-06T19:30:00Z,26.1914,-97.0507,0.0,12.78033646,343.1245284,15.53,'11111222,11111222,11111222' 
TABS,ioos:station:wmo:42044:1,2017-01-06T20:00:00Z,26.1914,-97.0507,0.0,13.12291507,342.7109201,16.61,'11111222,11111222,11111222' 
TABS,ioos:station:wmo:42044:1,2017-01-06T20:30:00Z,26.1914,-97.0507,0.0,13.51856871,339.8356786,17.19,'11111222,11111222,11111222' 
TABS,ioos:station:wmo:42044:1,2017-01-06T21:00:00Z,26.1914,-97.0507,0.0,12.54365577,350.4548877,15.47,'11111222,11111222,11111222' 
TABS,ioos:station:wmo:42044:1,2017-01-06T21:30:00Z,26.1914,-97.0507,0.0,11.72383896,348.7857276,14.52,'11111222,11111222,11111222' 
TABS,ioos:station:wmo:42044:1,2017-01-06T22:00:00Z,26.1914,-97.0507,0.0,12.21049549,349.094793,15.75,'11111222,11111222,11111222' 
TABS,ioos:station:wmo:42044:1,2017-01-06T22:30:00Z,26.1914,-97.0507,0.0,12.65526373,342.8105563,15.72,'11111222,11111222,11111222' 
TABS,ioos:station:wmo:42044:1,2017-01-06T23:00:00Z,26.1914,-97.0507,0.0,12.82083461,344.7603846,15.81,'11111222,11111222,11111222' 
TABS,ioos:station:wmo:42044:1,2017-01-06T23:30:00Z,26.1914,-97.0507,0.0,12.29575943,343.0238606,14.97,'11111222,11111222,11111222' 
TABS,ioos:station:wmo:42044:1,2017-01-07T00:00:00Z,26.1914,-97.0507,0.0,12.11709536,346.0553252,14.87,'11111222,11111222,11111222' 
TABS,ioos:station:wmo:42044:1,2017-01-07T00:30:00Z,26.1914,-97.0507,0.0,13.19886738,344.8475028,15.87,'11111222,11111222,11111222' 
TABS,ioos:station:wmo:42044:1,2017-01-07T01:00:00Z,26.1914,-97.0507,0.0,13.34309185,345.1928787,16.13,'11111222,11111222,11111222' 
TABS,ioos:station:wmo:42044:1,2017-01-07T01:30:00Z,26.1914,-97.0507,0.0,13.49305747,344.3052399,16.61,'11111222,11111222,11111222' 
TABS,ioos:station:wmo:42044:1,2017-01-07T02:00:00Z,26.1914,-97.0507,0.0,12.83570411,341.466074,15.96,'11111222,11111222,11111222' 
TABS,ioos:station:wmo:42044:1,2017-01-07T02:30:00Z,26.1914,-97.0507,0.0,13.39579038,341.9977039,16.65,'11111222,11111222,11111222' 
TABS,ioos:station:wmo:42044:1,2017-01-07T03:00:00Z,26.1914,-97.0507,0.0,12.86895489,345.8771928,15.73,'11111222,11111222,11111222' 
TABS,ioos:station:wmo:42044:1,2017-01-07T03:30:00Z,26.1914,-97.0507,0.0,13.12958491,344.6298857,16.36,'11111222,11111222,11111222' 
TABS,ioos:station:wmo:42044:1,2017-01-07T04:00:00Z,26.1914,-97.0507,0.0,12.47294672,342.2621595,16.81,'11111222,11111222,11111222' 
TABS,ioos:station:wmo:42044:1,2017-01-07T04:30:00Z,26.1914,-97.0507,0.0,12.0762784,343.3505726,15.62,'11111222,11111222,11111222' 
TABS,ioos:station:wmo:42044:1,2017-01-07T05:00:00Z,26.1914,-97.0507,0.0,12.89996124,340.104007,16.7,'11111222,11111222,11111222' 
TABS,ioos:station:wmo:42044:1,2017-01-07T05:30:00Z,26.1914,-97.0507,0.0,13.31682019,334.7048352,15.83,'11111222,11111222,11111222' 
TABS,ioos:station:wmo:42044:1,2017-01-07T06:00:00Z,26.1914,-97.0507,0.0,12.80617429,332.3142462,16.64,'11111222,11111222,11111222' 
TABS,ioos:station:wmo:42044:1,2017-01-07T06:30:00Z,26.1914,-97.0507,0.0,11.90699374,335.9103263,14.19,'11111222,11111222,11111222' 
TABS,ioos:station:wmo:42044:1,2017-01-07T07:00:00Z,26.1914,-97.0507,0.0,11.46588418,331.9597021,14.7,'11111222,11111222,11111222' 
TABS,ioos:station:wmo:42044:1,2017-01-07T07:30:00Z,26.1914,-97.0507,0.0,11.67702445,333.8297853,15.54,'11111222,11111222,11111222' 
TABS,ioos:station:wmo:42044:1,2017-01-07T08:00:00Z,26.1914,-97.0507,0.0,12.10362342,338.2248022,14.07,'11111222,11111222,11111222' 
TABS,ioos:station:wmo:42044:1,2017-01-07T08:30:00Z,26.1914,-97.0507,0.0,12.77524559,336.3242423,15.25,'11111222,11111222,11111222' 
TABS,ioos:station:wmo:42044:1,2017-01-07T09:00:00Z,26.1914,-97.0507,0.0,13.08153278,321.7983724,16.39,'11111222,11111222,11111222' 
TABS,ioos:station:wmo:42044:1,2017-01-07T09:30:00Z,26.1914,-97.0507,0.0,12.37213805,328.6866492,15.12,'11111222,11111222,11111222' 
TABS,ioos:station:wmo:42044:1,2017-01-07T10:00:00Z,26.1914,-97.0507,0.0,12.37016168,333.0826625,15.35,'11111222,11111222,11111222' 
TABS,ioos:station:wmo:42044:1,2017-01-07T10:30:00Z,26.1914,-97.0507,0.0,12.4815584,341.4052055,15.77,'11111222,11111222,11111222' 
TABS,ioos:station:wmo:42044:1,2017-01-07T11:00:00Z,26.1914,-97.0507,0.0,12.77629837,337.1074552,15.91,'11111222,11111222,11111222' 
TABS,ioos:station:wmo:42044:1,2017-01-07T11:30:00Z,26.1914,-97.0507,0.0,12.16865646,338.3470689,15.37,'11111222,11111222,11111222' 
TABS,ioos:station:wmo:42044:1,2017-01-07T12:00:00Z,26.1914,-97.0507,0.0,12.54468015,340.2937821,15.43,'11111222,11111222,11111222' 
TABS,ioos:station:wmo:42044:1,2017-01-07T12:30:00Z,26.1914,-97.0507,0.0,12.55119516,341.3194769,15.83,'11111222,11111222,11111222' 
TABS,ioos:station:wmo:42044:1,2017-01-07T13:00:00Z,26.1914,-97.0507,0.0,11.84152017,342.6053955,14.34,'11111222,11111222,11111222' 
TABS,ioos:station:wmo:42044:1,2017-01-07T13:30:00Z,26.1914,-97.0507,0.0,12.73131965,345.3959896,16.22,'11111222,11111222,11111222' 
TABS,ioos:station:wmo:42044:1,2017-01-07T14:00:00Z,26.1914,-97.0507,0.0,12.1711955,346.6029617,15.37,'11111222,11111222,11111222' 
TABS,ioos:station:wmo:42044:1,2017-01-07T14:30:00Z,26.1914,-97.0507,0.0,11.44414698,353.9305251,13.98,'11111222,11111222,11111222' 
TABS,ioos:station:wmo:42044:1,2017-01-07T15:00:00Z,26.1914,-97.0507,0.0,11.2339708,352.583791,14.09,'11111222,11111222,11111222' 
TABS,ioos:station:wmo:42044:1,2017-01-07T15:30:00Z,26.1914,-97.0507,0.0,10.30759914,347.163524,13.78,'11111222,11111222,11111222' 
TABS,ioos:station:wmo:42044:1,2017-01-07T16:00:00Z,26.1914,-97.0507,0.0,10.07782219,350.8646225,12.79,'11111222,11111222,11111222' 
TABS,ioos:station:wmo:42044:1,2017-01-07T16:30:00Z,26.1914,-97.0507,0.0,9.923477213,348.667237,13.16,'11111222,11111222,11111222' 
TABS,ioos:station:wmo:42044:1,2017-01-07T17:00:00Z,26.1914,-97.0507,0.0,10.28809992,347.1387786,13.73,'11111222,11111222,11111222' 
TABS,ioos:station:wmo:42044:1,2017-01-07T17:30:00Z,26.1914,-97.0507,0.0,10.2002451,344.9417673,13.2,'11111222,11111222,11111222' 
TABS,ioos:station:wmo:42044:1,2017-01-07T18:00:00Z,26.1914,-97.0507,0.0,9.093915548,348.7763768,13.26,'11111222,11111222,11111222' 
TABS,ioos:station:wmo:42044:1,2017-01-07T18:30:00Z,26.1914,-97.0507,0.0,9.259400629,352.4910337,12.79,'11111222,11111222,11111222' 
TABS,ioos:station:wmo:42044:1,2017-01-07T19:00:00Z,26.1914,-97.0507,0.0,8.954914852,342.9206209,11.38,'11111222,11111222,11111222' 
TABS,ioos:station:wmo:42044:1,2017-01-07T19:30:00Z,26.1914,-97.0507,0.0,9.342472906,323.7064723,12.48,'11111222,11111222,11111222' 
TABS,ioos:station:wmo:42044:1,2017-01-07T20:00:00Z,26.1914,-97.0507,0.0,9.54253635,321.808929,12.56,'11111222,11111222,11111222' 
TABS,ioos:station:wmo:42044:1,2017-01-07T20:30:00Z,26.1914,-97.0507,0.0,8.637129153,317.8154449,12.4,'11111222,11111222,11111222' 
TABS,ioos:station:wmo:42044:1,2017-01-07T21:00:00Z,26.1914,-97.0507,0.0,8.947871255,344.4414389,11.77,'11111222,11111222,11111222' 
TABS,ioos:station:wmo:42044:1,2017-01-07T21:30:00Z,26.1914,-97.0507,0.0,8.746936607,330.3281004,12.04,'11111222,11111222,11111222' 
TABS,ioos:station:wmo:42044:1,2017-01-07T22:00:00Z,26.1914,-97.0507,0.0,8.070024783,344.3274975,10.57,'11111222,11111222,11111222' 
TABS,ioos:station:wmo:42044:1,2017-01-07T22:30:00Z,26.1914,-97.0507,0.0,7.784246913,344.1959763,9.62,'11111222,11111222,11111222' 
TABS,ioos:station:wmo:42044:1,2017-01-07T23:00:00Z,26.1914,-97.0507,0.0,8.386966078,335.6350451,10.8,'11111222,11111222,11111222' 
TABS,ioos:station:wmo:42044:1,2017-01-07T23:30:00Z,26.1914,-97.0507,0.0,9.25216191,1.238421316,11.56,'11111222,11111222,11111222' 
TABS,ioos:station:wmo:42044:1,2017-01-08T00:00:00Z,26.1914,-97.0507,0.0,9.048148982,354.7365768,11.1,'11111222,11111222,11111222' 
TABS,ioos:station:wmo:42044:1,2017-01-08T00:30:00Z,26.1914,-97.0507,0.0,8.370005974,351.1339459,11.58,'11111222,11111222,11111222' 
TABS,ioos:station:wmo:42044:1,2017-01-08T01:00:00Z,26.1914,-97.0507,0.0,8.541340644,2.952633651,10.42,'11111222,11111222,11111222' 
TABS,ioos:station:wmo:42044:1,2017-01-08T01:30:00Z,26.1914,-97.0507,0.0,8.321015563,0.894961158,11.46,'11111222,11111222,11111222' 
TABS,ioos:station:wmo:42044:1,2017-01-08T02:00:00Z,26.1914,-97.0507,0.0,8.67747083,7.149358544,11.38,'11111222,11111222,11111222' 
TABS,ioos:station:wmo:42044:1,2017-01-08T02:30:00Z,26.1914,-97.0507,0.0,8.479770044,9.228820544,10.51,'11111222,11111222,11111222' 
TABS,ioos:station:wmo:42044:1,2017-01-08T03:00:00Z,26.1914,-97.0507,0.0,8.050621094,11.1003336,10.24,'11111222,11111222,11111222' 
TABS,ioos:station:wmo:42044:1,2017-01-08T03:30:00Z,26.1914,-97.0507,0.0,5.256015601,355.5258485,7.32,'11111222,11111222,11111222' 
TABS,ioos:station:wmo:42044:1,2017-01-08T04:00:00Z,26.1914,-97.0507,0.0,6.177094786,12.52856795,9.4,'11111222,11111222,11111222' 
TABS,ioos:station:wmo:42044:1,2017-01-08T04:30:00Z,26.1914,-97.0507,0.0,9.343088355,309.3971838,11.16,'11111222,11111222,11111222' 
TABS,ioos:station:wmo:42044:1,2017-01-08T05:00:00Z,26.1914,-97.0507,0.0,9.596301371,311.1128122,11.7,'11111222,11111222,11111222' 
TABS,ioos:station:wmo:42044:1,2017-01-08T05:30:00Z,26.1914,-97.0507,0.0,9.186147179,306.5454764,10.89,'11111222,11111222,11111222' 
TABS,ioos:station:wmo:42044:1,2017-01-08T06:00:00Z,26.1914,-97.0507,0.0,9.511703317,307.9541421,11.33,'11111222,11111222,11111222' 
TABS,ioos:station:wmo:42044:1,2017-01-08T06:30:00Z,26.1914,-97.0507,0.0,9.781170687,308.732904,12.05,'11111222,11111222,11111222' 
TABS,ioos:station:wmo:42044:1,2017-01-08T07:00:00Z,26.1914,-97.0507,0.0,10.20966209,309.8342192,12.29,'11111222,11111222,11111222' 
TABS,ioos:station:wmo:42044:1,2017-01-08T07:30:00Z,26.1914,-97.0507,0.0,10.33682737,310.8416837,12.55,'11111222,11111222,11111222' 
TABS,ioos:station:wmo:42044:1,2017-01-08T08:00:00Z,26.1914,-97.0507,0.0,10.40835242,317.9594835,12.34,'11111222,11111222,11111222' 
TABS,ioos:station:wmo:42044:1,2017-01-08T08:30:00Z,26.1914,-97.0507,0.0,10.15647577,318.2726508,12.39,'11111222,11111222,11111222' 
TABS,ioos:station:wmo:42044:1,2017-01-08T09:00:00Z,26.1914,-97.0507,0.0,10.17039822,323.637006,12.06,'11111222,11111222,11111222' 
TABS,ioos:station:wmo:42044:1,2017-01-08T09:30:00Z,26.1914,-97.0507,0.0,10.83767964,328.3923612,13.12,'11111222,11111222,11111222' 
TABS,ioos:station:wmo:42044:1,2017-01-08T10:00:00Z,26.1914,-97.0507,0.0,10.70645133,333.1236743,13.08,'11111222,11111222,11111222' 
TABS,ioos:station:wmo:42044:1,2017-01-08T10:30:00Z,26.1914,-97.0507,0.0,10.95781456,336.382443,12.85,'11111222,11111222,11111222' 
TABS,ioos:station:wmo:42044:1,2017-01-08T11:00:00Z,26.1914,-97.0507,0.0,10.60311747,341.5819717,12.76,'11111222,11111222,11111222' 
TABS,ioos:station:wmo:42044:1,2017-01-08T11:30:00Z,26.1914,-97.0507,0.0,9.975510012,342.6183946,11.86,'11111222,11111222,11111222' 
TABS,ioos:station:wmo:42044:1,2017-01-08T12:00:00Z,26.1914,-97.0507,0.0,9.63501946,352.8452864,11.3,'11111222,11111222,11111222' 
TABS,ioos:station:wmo:42044:1,2017-01-08T12:30:00Z,26.1914,-97.0507,0.0,9.04728136,352.5056017,10.94,'11111222,11111222,11111222' 
TABS,ioos:station:wmo:42044:1,2017-01-08T13:00:00Z,26.1914,-97.0507,0.0,8.180128361,353.0485441,9.41,'11111222,11111222,11111222' 
TABS,ioos:station:wmo:42044:1,2017-01-08T13:30:00Z,26.1914,-97.0507,0.0,5.714831581,353.6706842,7.54,'11111222,11111222,11111222' 
TABS,ioos:station:wmo:42044:1,2017-01-08T14:00:00Z,26.1914,-97.0507,0.0,5.308907609,64.20685187,7.09,'11111222,11111222,11111222' 
TABS,ioos:station:wmo:42044:1,2017-01-08T14:30:00Z,26.1914,-97.0507,0.0,5.213185207,60.33655979,7.17,'11111222,11111222,11111222' 
TABS,ioos:station:wmo:42044:1,2017-01-08T15:00:00Z,26.1914,-97.0507,0.0,5.831955075,62.86341003,7.64,'11111222,11111222,11111222' 
TABS,ioos:station:wmo:42044:1,2017-01-08T15:30:00Z,26.1914,-97.0507,0.0,5.454071873,53.42391213,6.84,'11111222,11111222,11111222' 
TABS,ioos:station:wmo:42044:1,2017-01-08T16:00:00Z,26.1914,-97.0507,0.0,5.316728317,52.18139363,7.12,'11111222,11111222,11111222' 
TABS,ioos:station:wmo:42044:1,2017-01-08T16:30:00Z,26.1914,-97.0507,0.0,5.40940847,55.16383018,7.51,'11111222,11111222,11111222' 
TABS,ioos:station:wmo:42044:1,2017-01-08T17:00:00Z,26.1914,-97.0507,0.0,5.890339549,54.74467228,8.05,'11111222,11111222,11111222' 
TABS,ioos:station:wmo:42044:1,2017-01-08T17:30:00Z,26.1914,-97.0507,0.0,5.803516176,59.10362027,7.61,'11111222,11111222,11111222' 
TABS,ioos:station:wmo:42044:1,2017-01-08T18:00:00Z,26.1914,-97.0507,0.0,5.190183041,82.02561428,6.94,'11111222,11111222,11111222' 
TABS,ioos:station:wmo:42044:1,2017-01-08T18:30:00Z,26.1914,-97.0507,0.0,5.4786951,84.13290911,6.93,'11111222,11111222,11111222' 